TimeCET,TemperatureF,Dew PointF,Humidity,Sea Level PressureIn,VisibilityMPH,Wind Direction,Wind SpeedMPH,Gust SpeedMPH,PrecipitationIn,Events,Conditions,WindDirDegrees,DateUTC
12:55 AM,46.4,46.4,100,30.21,-9999.0,WSW,5.8,-,N/A,,Clear,240,2013-01-31 23:55:00
1:00 AM,46,46,98,30.24,9,WSW,5.8,,,,,240,2013-02-01 00:00:00
1:55 AM,41.0,41.0,100,30.21,-9999.0,West,6.9,-,N/A,,Clear,280,2013-02-01 00:55:00
2:55 AM,44.6,44.6,100,30.21,-9999.0,NNW,3.5,-,N/A,,Clear,330,2013-02-01 01:55:00
3:55 AM,41.0,41.0,100,30.18,-9999.0,West,4.6,-,N/A,,Clear,270,2013-02-01 02:55:00
4:00 AM,41,41,100,30.20,9,West,4.6,,,,,270,2013-02-01 03:00:00
4:55 AM,44.6,44.6,100,30.15,-9999.0,NW,12.7,-,N/A,,Clear,310,2013-02-01 03:55:00
5:55 AM,44.6,44.6,100,30.15,-9999.0,NW,9.2,-,N/A,,Clear,310,2013-02-01 04:55:00
6:55 AM,46.4,46.4,100,30.15,-9999.0,SE,2.3,-,N/A,,Clear,130,2013-02-01 05:55:00
7:55 AM,46.4,44.6,93,30.12,-9999.0,West,2.3,-,N/A,,Clear,270,2013-02-01 06:55:00
8:55 AM,51.8,50.0,94,30.12,-9999.0,NNW,4.6,-,N/A,,Clear,340,2013-02-01 07:55:00
9:55 AM,60.8,53.6,77,30.09,-9999.0,SW,2.3,-,N/A,,Clear,220,2013-02-01 08:55:00
10:00 AM,60,53,72,30.12,9,SW,2.3,,,,Clear,220,2013-02-01 09:00:00
10:55 AM,64.4,44.6,49,30.12,-9999.0,West,13.8,-,N/A,,Clear,260,2013-02-01 09:55:00
11:55 AM,68.0,42.8,40,30.09,-9999.0,West,13.8,-,N/A,,Clear,270,2013-02-01 10:55:00
12:55 PM,68.0,41.0,37,30.06,-9999.0,West,16.1,-,N/A,,Clear,260,2013-02-01 11:55:00
1:55 PM,68.0,42.8,40,30.04,-9999.0,WSW,16.1,-,N/A,,Clear,250,2013-02-01 12:55:00
2:55 PM,68.0,39.2,35,30.01,-9999.0,West,13.8,-,N/A,,Clear,270,2013-02-01 13:55:00
3:55 PM,68.0,39.2,35,30.01,-9999.0,West,9.2,-,N/A,,Clear,280,2013-02-01 14:55:00
4:00 PM,68,39,23,30.01,10,West,9.2,,,,Clear,280,2013-02-01 15:00:00
4:55 PM,64.4,53.6,68,30.01,6.2,West,11.5,-,N/A,,Partly Cloudy,270,2013-02-01 15:55:00
5:55 PM,57.2,55.4,94,30.01,6.2,NE,2.3,-,N/A,,Partly Cloudy,40,2013-02-01 16:55:00
6:55 PM,57.2,55.4,94,30.01,-9999.0,West,13.8,-,N/A,,Clear,270,2013-02-01 17:55:00
7:00 PM,58,56,89,30.01,9,West,13.8,,,,Clear,270,2013-02-01 18:00:00
7:55 PM,57.2,55.4,94,30.01,6.2,West,13.8,-,N/A,,Partly Cloudy,270,2013-02-01 18:55:00
8:55 PM,55.4,55.4,100,30.01,-9999.0,West,11.5,-,N/A,,Clear,260,2013-02-01 19:55:00
9:55 PM,55.4,55.4,100,30.01,-9999.0,West,10.4,-,N/A,,Clear,270,2013-02-01 20:55:00
10:00 PM,55,55,98,30.01,6,West,10.4,,,,Clear,270,2013-02-01 21:00:00
10:55 PM,51.8,51.8,100,29.98,-9999.0,WSW,9.2,-,N/A,,Clear,250,2013-02-01 21:55:00
11:55 PM,53.6,51.8,94,29.95,-9999.0,West,11.5,-,N/A,,Clear,270,2013-02-01 22:55:00